Change the Weather History Date:

Wednesday, July 3, 2013

  Actual Average Record
Temperature  
Mean Temperature 75 °F -  
Max Temperature 91 °F 92 °F 104 °F (2011)
Min Temperature 59 °F 68 °F 59 °F (2013)
Cooling Degree Days 10    
Growing Degree Days 25 (Base 50)    
Moisture  
Dew Point 43 °F    
Average Humidity 34    
Maximum Humidity 60    
Minimum Humidity 16    
Precipitation  
Precipitation 0.00 in - - ()
Sea Level Pressure  
Sea Level Pressure 30.00 in    
Wind  
Wind Speed 4 mph (SSE)    
Max Wind Speed 14 mph    
Max Gust Speed -    
Visibility 10 miles    
Events      
Averages and records for this station are not official NWS values.
T = Trace of Precipitation, MM = Missing Value Source: NWS Daily Summary

Daily Weather History Graph

Daily Weather History Graph

Search for Another Location

Airport or City:

Trip Planner

Search our weather history database for the weather conditions in past years. The results will help you decide how hot, cold, wet, or windy it might be!

Date:

Astronomy

Jul. 03, 2013 Rise Set
Actual Time 6:26 AM CDT 8:53 PM CDT
Civil Twilight 5:57 AM CDT 9:23 PM CDT
Nautical Twilight 5:21 AM CDT 9:59 PM CDT
Astronomical Twilight 4:40 AM CDT 10:39 PM CDT
Moon 3:01 AM CDT (7/3) 5:09 PM CDT (7/3)
Length of Visible Light 15h 25m
Length of Day
14h 26m
Waning Crescent, 18% of the Moon is Illuminated
Jul 3
Waning Crescent
Jul 8
New
Jul 15
First Quarter
Jul 22
Full
Jul 29
Last Quarter

Hourly Weather History & Observations

Time (CDT) Temp. Dew Point Humidity Pressure Visibility Wind Dir Wind Speed Gust Speed Precip Events Conditions
12:53 AM 64.9 °F 42.1 °F 43% 30.06 in 10.0 mi SE 3.5 mph - N/A   Clear
1:53 AM 63.0 °F 43.0 °F 48% 30.06 in 10.0 mi Calm Calm - N/A   Clear
2:53 AM 63.0 °F 45.0 °F 52% 30.05 in 10.0 mi Calm Calm - N/A   Clear
3:53 AM 63.0 °F 46.0 °F 54% 30.05 in 10.0 mi Calm Calm - N/A   Clear
4:53 AM 62.1 °F 45.0 °F 53% 30.04 in 10.0 mi Calm Calm - N/A   Clear
5:53 AM 61.0 °F 45.0 °F 56% 30.05 in 10.0 mi East 3.5 mph - N/A   Clear
6:53 AM 59.0 °F 45.0 °F 60% 30.05 in 9.0 mi East 4.6 mph - N/A   Clear
7:53 AM 66.0 °F 50.0 °F 56% 30.06 in 10.0 mi Calm Calm - N/A   Clear
8:53 AM 72.0 °F 48.9 °F 44% 30.07 in 10.0 mi East 3.5 mph - N/A   Clear
9:53 AM 78.1 °F 46.0 °F 32% 30.07 in 10.0 mi Variable 3.5 mph - N/A   Clear
10:53 AM 82.9 °F 44.1 °F 25% 30.05 in 10.0 mi Variable 5.8 mph - N/A   Clear
11:53 AM 86.0 °F 43.0 °F 22% 30.03 in 10.0 mi SSE 6.9 mph - N/A   Clear
12:53 PM 88.0 °F 39.9 °F 18% 30.01 in 10.0 mi West 6.9 mph - N/A   Clear
1:53 PM 88.0 °F 39.9 °F 18% 29.99 in 10.0 mi Variable 4.6 mph - N/A   Partly Cloudy
2:53 PM 88.0 °F 39.0 °F 18% 29.97 in 10.0 mi SW 10.4 mph - N/A   Mostly Cloudy
3:53 PM 89.1 °F 39.0 °F 17% 29.96 in 10.0 mi South 10.4 mph - N/A   Scattered Clouds
4:53 PM 88.0 °F 39.0 °F 18% 29.94 in 10.0 mi SSW 9.2 mph - N/A   Mostly Cloudy
5:53 PM 91.0 °F 39.0 °F 16% 29.91 in 10.0 mi South 8.1 mph - N/A   Scattered Clouds
6:53 PM 88.0 °F 39.0 °F 18% 29.90 in 10.0 mi SSE 9.2 mph - N/A   Scattered Clouds
7:53 PM 88.0 °F 39.9 °F 18% 29.90 in 10.0 mi South 10.4 mph - N/A   Overcast
8:53 PM 82.0 °F 42.1 °F 24% 29.91 in 10.0 mi SSE 8.1 mph - N/A   Scattered Clouds
9:53 PM 81.0 °F 44.1 °F 27% 29.91 in 10.0 mi SSE 12.7 mph - N/A   Overcast
10:53 PM 78.1 °F 46.0 °F 32% 29.93 in 10.0 mi SSE 13.8 mph - N/A   Clear
11:53 PM 75.9 °F 48.0 °F 37% 29.94 in 10.0 mi SSE 13.8 mph - N/A   Clear